contact:dominique.lefevre@mio.osupytheas.fr, maurice.libes@osupytheas.fr, didier.mallarino@osupytheas.fr
Project:EMSO http://www.emso-fr.org/EMSO-France
Depth: 2436.0 m
Title:EMSO Ligure Ouest : Data MII capteur MICROCAT
DateTime_Computer,Latitude,Longitude,Temperature,Conductivity,Pressure,DateTime_Instrument
DateTime_Computer,Latitude,Longitude,degC,S m-1,dbar,DateTime_Instrument
2021-09-25T00:00:38Z,42.805,6.029,13.3011,4.60066,2470.52,2021-9-25T02:02:00Z
2021-09-25T00:03:41Z,42.805,6.029,13.3034,4.60074,2470.474,2021-9-25T02:05:03Z
2021-09-25T00:06:44Z,42.805,6.029,13.3036,4.60091,2470.474,2021-9-25T02:08:06Z
2021-09-25T00:09:47Z,42.805,6.029,13.3061,4.60059,2470.474,2021-9-25T02:11:09Z
2021-09-25T00:12:50Z,42.805,6.029,13.3069,4.60060,2470.497,2021-9-25T02:14:12Z
2021-09-25T00:15:53Z,42.805,6.029,13.3051,4.60074,2470.45,2021-9-25T02:17:15Z
2021-09-25T00:18:56Z,42.805,6.029,13.3064,4.60113,2470.474,2021-9-25T02:20:18Z
2021-09-25T00:22:00Z,42.805,6.029,13.3063,4.60056,2470.45,2021-9-25T02:23:21Z
2021-09-25T00:25:03Z,42.805,6.029,13.3068,4.60040,2470.46,2021-9-25T02:26:24Z
2021-09-25T00:28:06Z,42.805,6.029,13.3052,4.60056,2470.437,2021-9-25T02:29:28Z
2021-09-25T00:31:09Z,42.805,6.029,13.3053,4.60047,2470.46,2021-9-25T02:32:31Z
2021-09-25T00:34:12Z,42.805,6.029,13.3063,4.60055,2470.483,2021-9-25T02:35:34Z
2021-09-25T00:37:15Z,42.805,6.029,13.3059,4.60059,2470.427,2021-9-25T02:38:37Z
2021-09-25T00:40:18Z,42.805,6.029,13.3061,4.60049,2470.497,2021-9-25T02:41:40Z
2021-09-25T00:43:21Z,42.805,6.029,13.3056,4.60069,2470.45,2021-9-25T02:44:43Z
2021-09-25T00:46:25Z,42.805,6.029,13.3055,4.60054,2470.474,2021-9-25T02:47:46Z
2021-09-25T00:49:28Z,42.805,6.029,13.3054,4.60055,2470.45,2021-9-25T02:50:49Z
2021-09-25T00:52:31Z,42.805,6.029,13.3066,4.60046,2470.45,2021-9-25T02:53:53Z
2021-09-25T00:55:34Z,42.805,6.029,13.3059,4.60049,2470.437,2021-9-25T02:56:56Z
2021-09-25T00:58:37Z,42.805,6.029,13.3055,4.60046,2470.427,2021-9-25T02:59:59Z
2021-09-25T01:01:40Z,42.805,6.029,13.3063,4.60063,2470.45,2021-9-25T03:03:02Z
2021-09-25T01:04:43Z,42.805,6.029,13.3047,4.60063,2470.413,2021-9-25T03:06:05Z
2021-09-25T01:07:46Z,42.805,6.029,13.3045,4.60094,2470.45,2021-9-25T03:09:08Z
2021-09-25T01:10:49Z,42.805,6.029,13.2999,4.60112,2470.413,2021-9-25T03:12:11Z
2021-09-25T01:13:53Z,42.805,6.029,13.3017,4.60099,2470.45,2021-9-25T03:15:14Z
2021-09-25T01:16:56Z,42.805,6.029,13.2998,4.60073,2470.404,2021-9-25T03:18:18Z
2021-09-25T01:19:59Z,42.805,6.029,13.2987,4.60117,2470.437,2021-9-25T03:21:21Z
2021-09-25T01:23:02Z,42.805,6.029,13.2991,4.60104,2470.437,2021-9-25T03:24:24Z
2021-09-25T01:26:05Z,42.805,6.029,13.2987,4.60080,2470.427,2021-9-25T03:27:27Z
2021-09-25T01:29:08Z,42.805,6.029,13.3000,4.60053,2470.427,2021-9-25T03:30:30Z
2021-09-25T01:32:11Z,42.805,6.029,13.3073,4.60055,2470.427,2021-9-25T03:33:33Z
2021-09-25T01:35:14Z,42.805,6.029,13.3053,4.60064,2470.45,2021-9-25T03:36:36Z
2021-09-25T01:38:18Z,42.805,6.029,13.3013,4.60039,2470.413,2021-9-25T03:39:39Z
2021-09-25T01:41:21Z,42.805,6.029,13.3046,4.60060,2470.45,2021-9-25T03:42:43Z
2021-09-25T01:44:24Z,42.805,6.029,13.3047,4.60063,2470.404,2021-9-25T03:45:46Z
2021-09-25T01:47:27Z,42.805,6.029,13.3054,4.60049,2470.404,2021-9-25T03:48:49Z
2021-09-25T01:50:30Z,42.805,6.029,13.3047,4.60076,2470.38,2021-9-25T03:51:52Z
2021-09-25T01:53:33Z,42.805,6.029,13.3000,4.60055,2470.427,2021-9-25T03:54:55Z
2021-09-25T01:56:36Z,42.805,6.029,13.2992,4.60060,2470.427,2021-9-25T03:57:58Z
2021-09-25T01:59:39Z,42.805,6.029,13.2989,4.60085,2470.427,2021-9-25T04:01:01Z
2021-09-25T02:02:43Z,42.805,6.029,13.2988,4.60027,2470.39,2021-9-25T04:04:04Z
2021-09-25T02:05:46Z,42.805,6.029,13.2989,4.60029,2470.38,2021-9-25T04:07:07Z
2021-09-25T02:08:49Z,42.805,6.029,13.2990,4.60022,2470.39,2021-9-25T04:10:11Z
2021-09-25T02:11:52Z,42.805,6.029,13.2990,4.60035,2470.427,2021-9-25T04:13:14Z
2021-09-25T02:14:55Z,42.805,6.029,13.2988,4.60026,2470.39,2021-9-25T04:16:17Z
2021-09-25T02:17:58Z,42.805,6.029,13.2987,4.60026,2470.404,2021-9-25T04:19:20Z
2021-09-25T02:21:01Z,42.805,6.029,13.2989,4.60021,2470.404,2021-9-25T04:22:23Z
2021-09-25T02:24:04Z,42.805,6.029,13.2989,4.60027,2470.39,2021-9-25T04:25:26Z
2021-09-25T02:27:08Z,42.805,6.029,13.2991,4.60025,2470.38,2021-9-25T04:28:29Z
2021-09-25T02:30:11Z,42.805,6.029,13.2993,4.60019,2470.366,2021-9-25T04:31:33Z
2021-09-25T02:33:14Z,42.805,6.029,13.2986,4.60014,2470.343,2021-9-25T04:34:36Z
2021-09-25T02:36:17Z,42.805,6.029,13.2990,4.60019,2470.366,2021-9-25T04:37:39Z
2021-09-25T02:39:20Z,42.805,6.029,13.2992,4.60019,2470.404,2021-9-25T04:40:42Z
2021-09-25T02:42:23Z,42.805,6.029,13.2989,4.60019,2470.334,2021-9-25T04:43:45Z
2021-09-25T02:45:26Z,42.805,6.029,13.2990,4.60015,2470.39,2021-9-25T04:46:48Z
2021-09-25T02:48:29Z,42.805,6.029,13.2989,4.60020,2470.404,2021-9-25T04:49:51Z
2021-09-25T02:51:33Z,42.805,6.029,13.2990,4.60019,2470.366,2021-9-25T04:52:54Z
2021-09-25T02:54:36Z,42.805,6.029,13.2990,4.60014,2470.38,2021-9-25T04:55:57Z
2021-09-25T02:57:39Z,42.805,6.029,13.2989,4.60011,2470.366,2021-9-25T04:59:01Z
2021-09-25T03:00:42Z,42.805,6.029,13.2987,4.60014,2470.427,2021-9-25T05:02:04Z
2021-09-25T03:03:45Z,42.805,6.029,13.2990,4.60019,2470.343,2021-9-25T05:05:07Z
2021-09-25T03:06:48Z,42.805,6.029,13.2990,4.60019,2470.357,2021-9-25T05:08:10Z
2021-09-25T03:09:51Z,42.805,6.029,13.2989,4.60015,2470.39,2021-9-25T05:11:13Z
2021-09-25T03:12:54Z,42.805,6.029,13.2990,4.60016,2470.38,2021-9-25T05:14:16Z
2021-09-25T03:15:58Z,42.805,6.029,13.2991,4.60019,2470.38,2021-9-25T05:17:19Z
2021-09-25T03:19:01Z,42.805,6.029,13.2989,4.60016,2470.357,2021-9-25T05:20:22Z
2021-09-25T03:22:04Z,42.805,6.029,13.2987,4.60013,2470.38,2021-9-25T05:23:26Z
2021-09-25T03:25:07Z,42.805,6.029,13.2988,4.60014,2470.39,2021-9-25T05:26:29Z
2021-09-25T03:28:10Z,42.805,6.029,13.2987,4.60012,2470.366,2021-9-25T05:29:32Z
2021-09-25T03:31:13Z,42.805,6.029,13.2987,4.60012,2470.404,2021-9-25T05:32:35Z
2021-09-25T03:34:16Z,42.805,6.029,13.2990,4.60009,2470.366,2021-9-25T05:35:38Z
2021-09-25T03:37:19Z,42.805,6.029,13.2992,4.60011,2470.39,2021-9-25T05:38:41Z
2021-09-25T03:40:22Z,42.805,6.029,13.2990,4.60009,2470.39,2021-9-25T05:41:44Z
2021-09-25T03:43:26Z,42.805,6.029,13.2991,4.60009,2470.427,2021-9-25T05:44:47Z
2021-09-25T03:46:29Z,42.805,6.029,13.2989,4.60009,2470.413,2021-9-25T05:47:51Z
2021-09-25T03:49:32Z,42.805,6.029,13.2990,4.60009,2470.38,2021-9-25T05:50:54Z
2021-09-25T03:52:35Z,42.805,6.029,13.2993,4.60014,2470.366,2021-9-25T05:53:57Z
2021-09-25T03:55:38Z,42.805,6.029,13.2991,4.60009,2470.39,2021-9-25T05:57:00Z
2021-09-25T03:58:41Z,42.805,6.029,13.2993,4.60009,2470.366,2021-9-25T06:00:03Z
2021-09-25T04:01:44Z,42.805,6.029,13.2989,4.60009,2470.413,2021-9-25T06:03:06Z
2021-09-25T04:04:47Z,42.805,6.029,13.2987,4.60008,2470.343,2021-9-25T06:06:09Z
2021-09-25T04:07:51Z,42.805,6.029,13.2988,4.60009,2470.366,2021-9-25T06:09:12Z
2021-09-25T04:10:54Z,42.805,6.029,13.2990,4.60008,2470.39,2021-9-25T06:12:16Z
2021-09-25T04:13:57Z,42.805,6.029,13.2991,4.60010,2470.404,2021-9-25T06:15:19Z
2021-09-25T04:17:00Z,42.805,6.029,13.2993,4.60010,2470.413,2021-9-25T06:18:22Z
2021-09-25T04:20:03Z,42.805,6.029,13.2992,4.60010,2470.38,2021-9-25T06:21:25Z
2021-09-25T04:23:06Z,42.805,6.029,13.2989,4.60010,2470.404,2021-9-25T06:24:28Z
2021-09-25T04:26:09Z,42.805,6.029,13.2991,4.60009,2470.404,2021-9-25T06:27:31Z
2021-09-25T04:29:12Z,42.805,6.029,13.2992,4.60013,2470.413,2021-9-25T06:30:34Z
2021-09-25T04:32:16Z,42.805,6.029,13.2988,4.60011,2470.427,2021-9-25T06:33:37Z
2021-09-25T04:35:19Z,42.805,6.029,13.2986,4.60009,2470.427,2021-9-25T06:36:40Z
2021-09-25T04:38:22Z,42.805,6.029,13.2990,4.60006,2470.427,2021-9-25T06:39:44Z
2021-09-25T04:41:25Z,42.805,6.029,13.2991,4.60007,2470.38,2021-9-25T06:42:47Z
2021-09-25T04:44:28Z,42.805,6.029,13.2991,4.60005,2470.427,2021-9-25T06:45:50Z
2021-09-25T04:47:31Z,42.805,6.029,13.2990,4.60006,2470.413,2021-9-25T06:48:53Z
2021-09-25T04:50:34Z,42.805,6.029,13.2990,4.60006,2470.437,2021-9-25T06:51:56Z
2021-09-25T04:53:37Z,42.805,6.029,13.2993,4.60005,2470.39,2021-9-25T06:54:59Z
2021-09-25T04:56:41Z,42.805,6.029,13.2992,4.60005,2470.39,2021-9-25T06:58:02Z
2021-09-25T04:59:44Z,42.805,6.029,13.2990,4.60005,2470.427,2021-9-25T07:01:05Z
2021-09-25T05:02:47Z,42.805,6.029,13.2990,4.60003,2470.437,2021-9-25T07:04:09Z
2021-09-25T05:05:50Z,42.805,6.029,13.2985,4.60003,2470.39,2021-9-25T07:07:12Z
2021-09-25T05:08:53Z,42.805,6.029,13.2983,4.60003,2470.413,2021-9-25T07:10:15Z
2021-09-25T05:11:56Z,42.805,6.029,13.2993,4.60004,2470.413,2021-9-25T07:13:18Z
2021-09-25T05:14:59Z,42.805,6.029,13.2992,4.60008,2470.366,2021-9-25T07:16:21Z
2021-09-25T05:18:02Z,42.805,6.029,13.2987,4.60009,2470.413,2021-9-25T07:19:24Z
2021-09-25T05:21:06Z,42.805,6.029,13.2985,4.60004,2470.437,2021-9-25T07:22:27Z
2021-09-25T05:24:09Z,42.805,6.029,13.2991,4.60005,2470.39,2021-9-25T07:25:30Z
2021-09-25T05:27:12Z,42.805,6.029,13.2986,4.60004,2470.413,2021-9-25T07:28:34Z
2021-09-25T05:30:15Z,42.805,6.029,13.2986,4.60004,2470.39,2021-9-25T07:31:37Z
2021-09-25T05:33:18Z,42.805,6.029,13.2988,4.60005,2470.413,2021-9-25T07:34:40Z
2021-09-25T05:36:21Z,42.805,6.029,13.2986,4.60005,2470.413,2021-9-25T07:37:43Z
2021-09-25T05:39:24Z,42.805,6.029,13.2990,4.60006,2470.427,2021-9-25T07:40:46Z
2021-09-25T05:42:27Z,42.805,6.029,13.2987,4.60004,2470.413,2021-9-25T07:43:49Z
2021-09-25T05:45:31Z,42.805,6.029,13.2984,4.60006,2470.474,2021-9-25T07:46:52Z
2021-09-25T05:48:34Z,42.805,6.029,13.2991,4.60004,2470.413,2021-9-25T07:49:55Z
2021-09-25T05:51:37Z,42.805,6.029,13.2991,4.60003,2470.437,2021-9-25T07:52:59Z
2021-09-25T05:54:40Z,42.805,6.029,13.2990,4.60004,2470.46,2021-9-25T07:56:02Z
2021-09-25T05:57:43Z,42.805,6.029,13.2987,4.60004,2470.413,2021-9-25T07:59:05Z
2021-09-25T06:00:46Z,42.805,6.029,13.2990,4.60006,2470.413,2021-9-25T08:02:08Z
2021-09-25T06:03:49Z,42.805,6.029,13.2985,4.60003,2470.437,2021-9-25T08:05:11Z
2021-09-25T06:06:52Z,42.805,6.029,13.2991,4.60004,2470.437,2021-9-25T08:08:14Z
2021-09-25T06:09:55Z,42.805,6.029,13.2989,4.60006,2470.437,2021-9-25T08:11:17Z
2021-09-25T06:12:59Z,42.805,6.029,13.2986,4.60003,2470.437,2021-9-25T08:14:20Z
2021-09-25T06:16:02Z,42.805,6.029,13.2986,4.60003,2470.437,2021-9-25T08:17:24Z
2021-09-25T06:19:05Z,42.805,6.029,13.2987,4.60003,2470.46,2021-9-25T08:20:27Z
2021-09-25T06:22:08Z,42.805,6.029,13.2986,4.60007,2470.45,2021-9-25T08:23:30Z
2021-09-25T06:25:11Z,42.805,6.029,13.2989,4.60003,2470.474,2021-9-25T08:26:33Z
2021-09-25T06:28:14Z,42.805,6.029,13.2988,4.60004,2470.437,2021-9-25T08:29:36Z
2021-09-25T06:31:17Z,42.805,6.029,13.2990,4.60003,2470.474,2021-9-25T08:32:39Z
2021-09-25T06:34:20Z,42.805,6.029,13.2984,4.60005,2470.45,2021-9-25T08:35:42Z
2021-09-25T06:37:24Z,42.805,6.029,13.2987,4.60003,2470.46,2021-9-25T08:38:45Z
2021-09-25T06:40:27Z,42.805,6.029,13.2991,4.60006,2470.427,2021-9-25T08:41:49Z
2021-09-25T06:43:30Z,42.805,6.029,13.2986,4.60006,2470.46,2021-9-25T08:44:52Z
2021-09-25T06:46:33Z,42.805,6.029,13.2991,4.60006,2470.427,2021-9-25T08:47:55Z
2021-09-25T06:49:36Z,42.805,6.029,13.2989,4.60006,2470.497,2021-9-25T08:50:58Z
2021-09-25T06:52:39Z,42.805,6.029,13.2986,4.60004,2470.427,2021-9-25T08:54:01Z
2021-09-25T06:55:42Z,42.805,6.029,13.2990,4.60006,2470.483,2021-9-25T08:57:04Z
2021-09-25T06:58:45Z,42.805,6.029,13.2990,4.60005,2470.437,2021-9-25T09:00:07Z
2021-09-25T07:01:49Z,42.805,6.029,13.2986,4.60007,2470.483,2021-9-25T09:03:10Z
2021-09-25T07:04:52Z,42.805,6.029,13.2985,4.60005,2470.474,2021-9-25T09:06:13Z
2021-09-25T07:07:55Z,42.805,6.029,13.2988,4.60011,2470.497,2021-9-25T09:09:17Z
2021-09-25T07:10:58Z,42.805,6.029,13.2989,4.60005,2470.46,2021-9-25T09:12:20Z
2021-09-25T07:14:01Z,42.805,6.029,13.2986,4.60005,2470.46,2021-9-25T09:15:23Z
2021-09-25T07:17:04Z,42.805,6.029,13.2986,4.60008,2470.483,2021-9-25T09:18:26Z
2021-09-25T07:20:07Z,42.805,6.029,13.2987,4.60006,2470.52,2021-9-25T09:21:29Z
2021-09-25T07:23:10Z,42.805,6.029,13.2988,4.60004,2470.507,2021-9-25T09:24:32Z
2021-09-25T07:26:14Z,42.805,6.029,13.2990,4.60007,2470.52,2021-9-25T09:27:35Z
2021-09-25T07:29:17Z,42.805,6.029,13.2986,4.60007,2470.483,2021-9-25T09:30:38Z
2021-09-25T07:32:20Z,42.805,6.029,13.2986,4.60005,2470.497,2021-9-25T09:33:42Z
2021-09-25T07:35:23Z,42.805,6.029,13.2992,4.60008,2470.507,2021-9-25T09:36:45Z
2021-09-25T07:38:26Z,42.805,6.029,13.2987,4.60007,2470.507,2021-9-25T09:39:48Z
2021-09-25T07:41:29Z,42.805,6.029,13.2987,4.60008,2470.52,2021-9-25T09:42:51Z
2021-09-25T07:44:32Z,42.805,6.029,13.2987,4.60004,2470.544,2021-9-25T09:45:54Z
2021-09-25T07:47:35Z,42.805,6.029,13.2986,4.60006,2470.544,2021-9-25T09:48:57Z
2021-09-25T07:50:39Z,42.805,6.029,13.2990,4.60009,2470.507,2021-9-25T09:52:00Z
2021-09-25T07:53:42Z,42.805,6.029,13.2988,4.60007,2470.53,2021-9-25T09:55:03Z
2021-09-25T07:56:45Z,42.805,6.029,13.2990,4.60006,2470.507,2021-9-25T09:58:07Z
2021-09-25T07:59:48Z,42.805,6.029,13.2991,4.60005,2470.507,2021-9-25T10:01:10Z
2021-09-25T08:02:51Z,42.805,6.029,13.2990,4.60005,2470.544,2021-9-25T10:04:13Z
2021-09-25T08:05:54Z,42.805,6.029,13.2989,4.60005,2470.53,2021-9-25T10:07:16Z
2021-09-25T08:08:57Z,42.805,6.029,13.2990,4.60010,2470.507,2021-9-25T10:10:19Z
2021-09-25T08:12:00Z,42.805,6.029,13.2988,4.60008,2470.553,2021-9-25T10:13:22Z
2021-09-25T08:15:04Z,42.805,6.029,13.2991,4.60007,2470.52,2021-9-25T10:16:25Z
2021-09-25T08:18:07Z,42.805,6.029,13.2989,4.60007,2470.483,2021-9-25T10:19:28Z
2021-09-25T08:21:10Z,42.805,6.029,13.2988,4.60009,2470.53,2021-9-25T10:22:32Z
2021-09-25T08:24:13Z,42.805,6.029,13.2989,4.60009,2470.544,2021-9-25T10:25:35Z
2021-09-25T08:27:16Z,42.805,6.029,13.2986,4.60006,2470.567,2021-9-25T10:28:38Z
2021-09-25T08:30:19Z,42.805,6.029,13.2988,4.60009,2470.544,2021-9-25T10:31:41Z
2021-09-25T08:33:22Z,42.805,6.029,13.2986,4.60007,2470.52,2021-9-25T10:34:44Z
2021-09-25T08:36:25Z,42.805,6.029,13.2990,4.60006,2470.553,2021-9-25T10:37:47Z
2021-09-25T08:39:29Z,42.805,6.029,13.2989,4.60006,2470.544,2021-9-25T10:40:50Z
2021-09-25T08:42:32Z,42.805,6.029,13.2990,4.60009,2470.53,2021-9-25T10:43:54Z
2021-09-25T08:45:35Z,42.805,6.029,13.2990,4.60007,2470.544,2021-9-25T10:46:57Z
2021-09-25T08:48:38Z,42.805,6.029,13.2987,4.60006,2470.553,2021-9-25T10:50:00Z
2021-09-25T08:51:41Z,42.805,6.029,13.2986,4.60007,2470.553,2021-9-25T10:53:03Z
2021-09-25T08:54:44Z,42.805,6.029,13.2989,4.60007,2470.53,2021-9-25T10:56:06Z
2021-09-25T08:57:47Z,42.805,6.029,13.2990,4.60007,2470.553,2021-9-25T10:59:09Z
2021-09-25T09:00:50Z,42.805,6.029,13.2990,4.60006,2470.553,2021-9-25T11:02:12Z
2021-09-25T09:03:54Z,42.805,6.029,13.2991,4.60007,2470.553,2021-9-25T11:05:15Z
2021-09-25T09:06:57Z,42.805,6.029,13.2988,4.60007,2470.53,2021-9-25T11:08:18Z
2021-09-25T09:10:00Z,42.805,6.029,13.2990,4.60006,2470.553,2021-9-25T11:11:22Z
2021-09-25T09:13:03Z,42.805,6.029,13.2988,4.60010,2470.567,2021-9-25T11:14:25Z
2021-09-25T09:16:06Z,42.805,6.029,13.2988,4.60006,2470.53,2021-9-25T11:17:28Z
2021-09-25T09:19:09Z,42.805,6.029,13.2987,4.60009,2470.53,2021-9-25T11:20:31Z
2021-09-25T09:22:12Z,42.805,6.029,13.2990,4.60009,2470.553,2021-9-25T11:23:34Z
2021-09-25T09:25:15Z,42.805,6.029,13.2991,4.60011,2470.567,2021-9-25T11:26:37Z
2021-09-25T09:28:19Z,42.805,6.029,13.2989,4.60006,2470.567,2021-9-25T11:29:40Z
2021-09-25T09:31:22Z,42.805,6.029,13.2986,4.60008,2470.567,2021-9-25T11:32:44Z
2021-09-25T09:34:25Z,42.805,6.029,13.2990,4.60009,2470.53,2021-9-25T11:35:47Z
2021-09-25T09:37:28Z,42.805,6.029,13.2991,4.60007,2470.567,2021-9-25T11:38:50Z
2021-09-25T09:40:31Z,42.805,6.029,13.2993,4.60009,2470.53,2021-9-25T11:41:53Z
2021-09-25T09:43:34Z,42.805,6.029,13.2988,4.60006,2470.563,2021-9-25T11:44:56Z
2021-09-25T09:46:37Z,42.805,6.029,13.2989,4.60009,2470.567,2021-9-25T11:47:59Z
2021-09-25T09:49:40Z,42.805,6.029,13.2991,4.60009,2470.553,2021-9-25T11:51:02Z
2021-09-25T09:52:44Z,42.805,6.029,13.2985,4.60006,2470.553,2021-9-25T11:54:05Z
2021-09-25T09:55:47Z,42.805,6.029,13.2988,4.60009,2470.53,2021-9-25T11:57:09Z
2021-09-25T09:58:50Z,42.805,6.029,13.2990,4.60006,2470.544,2021-9-25T12:00:12Z
2021-09-25T10:01:53Z,42.805,6.029,13.2991,4.60011,2470.567,2021-9-25T12:03:15Z
2021-09-25T10:04:56Z,42.805,6.029,13.2990,4.60007,2470.53,2021-9-25T12:06:18Z
2021-09-25T10:07:59Z,42.805,6.029,13.2990,4.60010,2470.567,2021-9-25T12:09:21Z
2021-09-25T10:11:02Z,42.805,6.029,13.2991,4.60007,2470.544,2021-9-25T12:12:24Z
2021-09-25T10:14:05Z,42.805,6.029,13.2988,4.60007,2470.567,2021-9-25T12:15:27Z
2021-09-25T10:17:09Z,42.805,6.029,13.2985,4.60009,2470.567,2021-9-25T12:18:30Z
2021-09-25T10:20:12Z,42.805,6.029,13.2991,4.60008,2470.53,2021-9-25T12:21:34Z
2021-09-25T10:23:15Z,42.805,6.029,13.2993,4.60008,2470.567,2021-9-25T12:24:37Z
2021-09-25T10:26:18Z,42.805,6.029,13.2992,4.60007,2470.553,2021-9-25T12:27:40Z
2021-09-25T10:29:21Z,42.805,6.029,13.2993,4.60007,2470.52,2021-9-25T12:30:43Z
2021-09-25T10:32:24Z,42.805,6.029,13.2990,4.60007,2470.553,2021-9-25T12:33:46Z
2021-09-25T10:35:27Z,42.805,6.029,13.2986,4.60007,2470.53,2021-9-25T12:36:49Z
2021-09-25T10:38:31Z,42.805,6.029,13.2990,4.60005,2470.52,2021-9-25T12:39:52Z
2021-09-25T10:41:34Z,42.805,6.029,13.2983,4.60009,2470.52,2021-9-25T12:42:55Z
2021-09-25T10:44:37Z,42.805,6.029,13.2985,4.60007,2470.507,2021-9-25T12:45:59Z
2021-09-25T10:47:40Z,42.805,6.029,13.2986,4.60010,2470.544,2021-9-25T12:49:02Z
2021-09-25T10:50:43Z,42.805,6.029,13.2984,4.60006,2470.544,2021-9-25T12:52:05Z
2021-09-25T10:53:46Z,42.805,6.029,13.2990,4.60006,2470.507,2021-9-25T12:55:08Z
2021-09-25T10:56:49Z,42.805,6.029,13.2989,4.60005,2470.507,2021-9-25T12:58:11Z
2021-09-25T10:59:52Z,42.805,6.029,13.2987,4.60008,2470.53,2021-9-25T13:01:14Z
2021-09-25T11:02:56Z,42.805,6.029,13.2989,4.60005,2470.53,2021-9-25T13:04:17Z
2021-09-25T11:05:59Z,42.805,6.029,13.2991,4.60006,2470.567,2021-9-25T13:07:20Z
2021-09-25T11:09:02Z,42.805,6.029,13.2990,4.60007,2470.507,2021-9-25T13:10:24Z
2021-09-25T11:12:05Z,42.805,6.029,13.2991,4.60008,2470.53,2021-9-25T13:13:27Z
2021-09-25T11:15:08Z,42.805,6.029,13.2986,4.60009,2470.52,2021-9-25T13:16:30Z
2021-09-25T11:18:11Z,42.805,6.029,13.2989,4.60009,2470.507,2021-9-25T13:19:33Z
2021-09-25T11:21:14Z,42.805,6.029,13.2990,4.60006,2470.516,2021-9-25T13:22:36Z
2021-09-25T11:24:17Z,42.805,6.029,13.2988,4.60010,2470.544,2021-9-25T13:25:39Z
2021-09-25T11:27:21Z,42.805,6.029,13.2984,4.60005,2470.53,2021-9-25T13:28:42Z
2021-09-25T11:30:24Z,42.805,6.029,13.2989,4.60007,2470.507,2021-9-25T13:31:45Z
2021-09-25T11:33:27Z,42.805,6.029,13.2990,4.60007,2470.544,2021-9-25T13:34:49Z
2021-09-25T11:36:30Z,42.805,6.029,13.2993,4.60006,2470.52,2021-9-25T13:37:52Z
2021-09-25T11:39:33Z,42.805,6.029,13.2988,4.60007,2470.553,2021-9-25T13:40:55Z
2021-09-25T11:42:36Z,42.805,6.029,13.2990,4.60006,2470.483,2021-9-25T13:43:58Z
2021-09-25T11:45:39Z,42.805,6.029,13.2990,4.60006,2470.507,2021-9-25T13:47:01Z
2021-09-25T11:48:42Z,42.805,6.029,13.2989,4.60007,2470.507,2021-9-25T13:50:04Z
2021-09-25T11:51:46Z,42.805,6.029,13.2988,4.60006,2470.52,2021-9-25T13:53:07Z
2021-09-25T11:54:49Z,42.805,6.029,13.2988,4.60008,2470.507,2021-9-25T13:56:10Z
2021-09-25T11:57:52Z,42.805,6.029,13.2986,4.60006,2470.483,2021-9-25T13:59:14Z
2021-09-25T12:00:55Z,42.805,6.029,13.2986,4.60006,2470.507,2021-9-25T14:02:17Z
2021-09-25T12:03:58Z,42.805,6.029,13.2990,4.60007,2470.507,2021-9-25T14:05:20Z
2021-09-25T12:07:01Z,42.805,6.029,13.2989,4.60006,2470.497,2021-9-25T14:08:23Z
2021-09-25T12:10:04Z,42.805,6.029,13.2988,4.60005,2470.483,2021-9-25T14:11:26Z
2021-09-25T12:13:07Z,42.805,6.029,13.2991,4.60006,2470.483,2021-9-25T14:14:29Z
2021-09-25T12:16:11Z,42.805,6.029,13.2986,4.60006,2470.53,2021-9-25T14:17:32Z
2021-09-25T12:19:14Z,42.805,6.029,13.2991,4.60004,2470.483,2021-9-25T14:20:35Z
2021-09-25T12:22:17Z,42.805,6.029,13.2988,4.60006,2470.437,2021-9-25T14:23:39Z
2021-09-25T12:25:20Z,42.805,6.029,13.2990,4.60006,2470.507,2021-9-25T14:26:42Z
2021-09-25T12:28:23Z,42.805,6.029,13.2990,4.60006,2470.493,2021-9-25T14:29:45Z
2021-09-25T12:31:26Z,42.805,6.029,13.2991,4.60004,2470.507,2021-9-25T14:32:48Z
2021-09-25T12:34:29Z,42.805,6.029,13.2985,4.60006,2470.46,2021-9-25T14:35:51Z
2021-09-25T12:37:32Z,42.805,6.029,13.2991,4.60006,2470.46,2021-9-25T14:38:54Z
2021-09-25T12:40:36Z,42.805,6.029,13.2992,4.60006,2470.483,2021-9-25T14:41:57Z
2021-09-25T12:43:39Z,42.805,6.029,13.2986,4.60007,2470.483,2021-9-25T14:45:01Z
2021-09-25T12:46:42Z,42.805,6.029,13.2988,4.60006,2470.46,2021-9-25T14:48:04Z
2021-09-25T12:49:45Z,42.805,6.029,13.2988,4.60005,2470.483,2021-9-25T14:51:07Z
2021-09-25T12:52:48Z,42.805,6.029,13.2985,4.60005,2470.46,2021-9-25T14:54:10Z
2021-09-25T12:55:51Z,42.805,6.029,13.2989,4.60005,2470.45,2021-9-25T14:57:13Z
2021-09-25T12:58:54Z,42.805,6.029,13.2991,4.60005,2470.497,2021-9-25T15:00:16Z
2021-09-25T13:01:57Z,42.805,6.029,13.2990,4.60005,2470.46,2021-9-25T15:03:19Z
2021-09-25T13:05:01Z,42.805,6.029,13.2986,4.60006,2470.474,2021-9-25T15:06:22Z
2021-09-25T13:08:04Z,42.805,6.029,13.2989,4.60006,2470.46,2021-9-25T15:09:26Z
2021-09-25T13:11:07Z,42.805,6.029,13.2990,4.60004,2470.437,2021-9-25T15:12:29Z
2021-09-25T13:14:10Z,42.805,6.029,13.2988,4.60005,2470.45,2021-9-25T15:15:32Z
2021-09-25T13:17:13Z,42.805,6.029,13.2988,4.60007,2470.437,2021-9-25T15:18:35Z
2021-09-25T13:20:16Z,42.805,6.029,13.2990,4.60006,2470.437,2021-9-25T15:21:38Z
2021-09-25T13:23:19Z,42.805,6.029,13.2990,4.60004,2470.437,2021-9-25T15:24:41Z
2021-09-25T13:26:22Z,42.805,6.029,13.2989,4.60004,2470.45,2021-9-25T15:27:44Z
2021-09-25T13:29:26Z,42.805,6.029,13.2986,4.60005,2470.413,2021-9-25T15:30:47Z
2021-09-25T13:32:29Z,42.805,6.029,13.2990,4.60007,2470.46,2021-9-25T15:33:51Z
2021-09-25T13:35:32Z,42.805,6.029,13.2986,4.60006,2470.427,2021-9-25T15:36:54Z
2021-09-25T13:38:35Z,42.805,6.029,13.2986,4.60005,2470.437,2021-9-25T15:39:57Z
2021-09-25T13:41:38Z,42.805,6.029,13.2985,4.60003,2470.45,2021-9-25T15:43:00Z
2021-09-25T13:44:41Z,42.805,6.029,13.2988,4.60004,2470.427,2021-9-25T15:46:03Z
2021-09-25T13:47:44Z,42.805,6.029,13.2988,4.60004,2470.45,2021-9-25T15:49:06Z
2021-09-25T13:50:47Z,42.805,6.029,13.2990,4.60006,2470.427,2021-9-25T15:52:09Z
2021-09-25T13:53:51Z,42.805,6.029,13.2988,4.60005,2470.413,2021-9-25T15:55:12Z
2021-09-25T13:56:54Z,42.805,6.029,13.2988,4.60005,2470.39,2021-9-25T15:58:16Z
2021-09-25T13:59:57Z,42.805,6.029,13.2990,4.60005,2470.39,2021-9-25T16:01:19Z
2021-09-25T14:03:00Z,42.805,6.029,13.2986,4.60003,2470.427,2021-9-25T16:04:22Z
2021-09-25T14:06:03Z,42.805,6.029,13.2988,4.60006,2470.45,2021-9-25T16:07:25Z
2021-09-25T14:09:06Z,42.805,6.029,13.2990,4.60005,2470.437,2021-9-25T16:10:28Z
2021-09-25T14:12:09Z,42.805,6.029,13.2990,4.60007,2470.46,2021-9-25T16:13:31Z
2021-09-25T14:15:13Z,42.805,6.029,13.2988,4.60006,2470.413,2021-9-25T16:16:34Z
2021-09-25T14:18:16Z,42.805,6.029,13.2990,4.60005,2470.39,2021-9-25T16:19:37Z
2021-09-25T14:21:19Z,42.805,6.029,13.2991,4.60006,2470.413,2021-9-25T16:22:41Z
2021-09-25T14:24:22Z,42.805,6.029,13.2986,4.60005,2470.404,2021-9-25T16:25:44Z
2021-09-25T14:27:25Z,42.805,6.029,13.2987,4.60006,2470.45,2021-9-25T16:28:47Z
2021-09-25T14:30:28Z,42.805,6.029,13.2986,4.60004,2470.437,2021-9-25T16:31:50Z
2021-09-25T14:33:31Z,42.805,6.029,13.2990,4.60006,2470.45,2021-9-25T16:34:53Z
2021-09-25T14:36:34Z,42.805,6.029,13.2987,4.60005,2470.427,2021-9-25T16:37:56Z
2021-09-25T14:39:38Z,42.805,6.029,13.2991,4.60004,2470.45,2021-9-25T16:40:59Z
2021-09-25T14:42:41Z,42.805,6.029,13.2988,4.60004,2470.413,2021-9-25T16:44:03Z
2021-09-25T14:45:44Z,42.805,6.029,13.2988,4.60008,2470.427,2021-9-25T16:47:06Z
2021-09-25T14:48:47Z,42.805,6.029,13.2988,4.60007,2470.413,2021-9-25T16:50:09Z
2021-09-25T14:51:50Z,42.805,6.029,13.2991,4.60006,2470.45,2021-9-25T16:53:12Z
2021-09-25T14:54:53Z,42.805,6.029,13.2990,4.60005,2470.39,2021-9-25T16:56:15Z
2021-09-25T14:57:56Z,42.805,6.029,13.2989,4.60006,2470.413,2021-9-25T16:59:18Z
2021-09-25T15:00:59Z,42.805,6.029,13.2990,4.60004,2470.427,2021-9-25T17:02:21Z
2021-09-25T15:04:03Z,42.805,6.029,13.2989,4.60005,2470.39,2021-9-25T17:05:24Z
2021-09-25T15:07:06Z,42.805,6.029,13.2991,4.60004,2470.437,2021-9-25T17:08:28Z
2021-09-25T15:10:09Z,42.805,6.029,13.2987,4.60006,2470.404,2021-9-25T17:11:31Z
2021-09-25T15:13:12Z,42.805,6.029,13.2989,4.60006,2470.413,2021-9-25T17:14:34Z